Temp
24 23 22 23 23 23 24 26 26 27 27 26 26 25 24 23 23 25 25 25 25 24 23 24 24 24 24 23 22 20 20 20 21 21 21 21 21 21 22 22 22 22 22 22 21 20 20 20 19 19 19 19 18 18 18 18 18 18 18 17 17 17 17 17 17 17 17 18 18 18 18 17 18 17 17 17 17 16 16 16 16 15 15 15 14 14
24 21 22 24 24 23 25 26 26 27 27 27 26 24 24 24 24 25 25 25 25 24 23 24 24 24 24 24 23 21 20 20 21 21 21 21 21 21 22 22 22 22 22 22 22 21 20 20 19 19 19 19 18 18 18 18 18 18 18 17 17 17 17 17 17 17 18 18 18 18 18 18 17 17 17 17 16 16 16 15 15 15 15 15 14 14
21 21 22 23 24 24 24 25 26 27 27 27 26 24 23 24 24 24 24 25 24 23 24 24 24 24 24 24 23 22 21 21 22 22 21 21 21 21 21 22 22 22 21 22 21 21 20 20 20 19 19 19 19 18 18 18 18 18 18 17 17 17 17 17 17 17 17 17 18 18 18 18 17 17 17 17 16 16 15 15 15 15 15 15 15 14
20 22 23 24 26 26 26 26 26 27 27 27 26 24 23 24 24 22 23 24 24 24 24 24 24 24 24 23 23 22 22 22 22 22 22 22 22 22 22 22 22 21 21 21 21 21 21 20 20 19 19 19 19 19 18 18 18 18 18 17 17 17 17 17 17 17 17 17 17 17 17 17 17 16 16 16 16 16 15 15 15 15 14 15 15 14
22 25 26 27 27 27 27 27 26 25 25 27 27 25 24 25 24 23 24 24 24 24 24 24 23 23 24 23 23 23 22 22 22 22 21 22 22 22 22 22 22 22 21 21 21 21 21 21 20 20 19 19 19 19 19 18 18 18 18 18 18 17 17 17 17 17 17 17 16 17 17 16 16 16 16 17 16 16 16 15 15 15 14 14 14 14
26 28 28 27 27 27 27 27 26 24 23 24 26 27 26 26 26 25 24 24 22 22 24 24 21 21 23 24 23 23 22 22 22 22 21 22 22 22 22 22 22 22 22 22 21 21 21 21 20 20 19 19 19 19 19 18 18 18 18 18 18 18 17 17 17 17 17 17 17 17 17 17 17 17 17 17 17 17 16 16 15 15 14 14 14 14
27 27 27 27 27 27 27 27 27 26 23 22 25 27 27 27 25 24 24 23 21 21 24 24 22 21 22 24 25 24 22 22 22 22 22 23 23 22 22 22 22 22 22 22 22 22 22 21 20 20 19 19 19 19 19 18 18 18 18 18 18 18 17 17 17 17 17 17 17 17 18 18 18 18 17 17 16 16 16 15 15 14 14 14 14 13
28 27 27 27 27 27 27 26 28 27 24 22 25 27 27 27 25 25 24 23 23 23 24 24 23 21 21 23 26 24 23 23 22 22 23 23 23 23 23 23 23 23 23 22 22 22 22 21 21 20 20 19 19 19 19 18 18 18 18 18 18 18 17 17 17 17 17 17 17 17 18 18 18 18 17 16 16 16 16 15 15 14 14 14 13 13
28 27 27 27 27 27 27 27 28 28 25 24 26 27 27 27 26 26 25 23 24 23 22 23 23 22 21 23 26 25 23 23 23 23 23 23 23 24 24 24 23 23 23 23 22 22 22 21 21 20 20 19 19 19 19 18 18 18 18 18 18 18 17 17 17 17 17 17 17 17 18 18 18 17 17 16 16 16 15 15 15 14 14 13 13 13
28 27 27 27 27 27 27 27 28 28 26 25 27 27 27 27 26 26 25 23 23 22 21 22 23 22 21 22 24 24 23 24 24 24 24 24 24 24 24 24 24 24 24 23 23 23 22 21 21 21 20 20 19 19 19 18 18 18 18 18 18 18 17 17 17 17 17 17 17 17 17 18 17 17 17 17 16 16 15 15 15 14 14 14 13 13
28 28 27 27 27 28 27 27 27 27 27 26 27 27 26 26 26 25 25 23 22 21 21 22 22 22 21 22 24 24 24 26 26 26 25 25 25 24 24 24 24 24 24 24 24 23 22 21 21 21 20 20 19 19 19 18 18 18 18 18 18 18 17 17 17 17 17 17 17 17 17 17 17 17 17 17 16 16 16 16 15 15 14 14 14 13
28 28 27 27 27 28 27 27 27 27 27 27 27 26 24 24 24 23 23 22 21 21 21 22 23 22 20 22 25 27 27 27 27 27 26 25 25 25 25 24 24 24 24 24 24 24 23 22 21 21 21 20 19 19 19 18 18 18 18 18 18 18 17 17 17 17 17 17 17 17 17 17 17 17 17 17 17 17 17 16 16 15 15 14 14 13
27 27 27 26 26 28 28 26 25 26 27 27 27 24 22 21 22 21 21 21 21 21 22 23 23 22 21 24 27 28 28 28 28 28 27 26 26 25 25 25 25 25 24 24 24 24 23 22 22 21 21 20 19 19 19 19 19 18 18 18 18 18 17 17 17 17 17 17 17 17 17 17 17 17 17 18 18 17 17 17 16 16 15 15 14 14
24 26 26 26 26 28 28 25 24 24 26 27 25 23 22 21 21 21 21 21 21 21 22 23 22 21 22 25 28 29 29 29 28 28 28 27 27 26 26 25 25 25 25 25 24 24 23 23 22 21 21 20 20 19 19 19 18 18 18 18 18 18 17 17 17 17 17 17 17 17 17 17 17 17 17 18 18 18 17 17 17 16 16 15 15 14
22 23 25 26 26 27 27 26 26 27 27 27 27 26 23 22 21 21 21 21 21 21 22 22 22 21 21 24 28 29 29 29 28 28 28 28 27 27 26 26 25 25 25 25 25 24 24 23 22 21 21 21 20 19 19 19 18 18 19 18 18 18 17 17 17 17 17 17 17 17 17 17 18 18 17 17 18 18 18 17 17 17 16 16 15 15
22 22 26 27 26 27 27 27 29 28 26 26 28 26 23 24 23 21 21 21 21 21 21 21 22 24 25 27 29 29 28 29 28 28 28 27 27 27 26 26 26 25 25 25 25 24 24 23 22 22 21 21 20 20 19 19 19 19 19 18 18 18 18 17 17 17 17 17 17 17 17 17 17 18 17 17 17 17 17 17 17 17 16 16 16 15
22 22 27 27 26 28 28 28 29 27 25 25 25 24 25 27 26 22 21 21 21 21 22 22 22 25 26 27 29 29 28 28 27 27 27 27 27 27 26 26 26 25 25 25 25 24 24 23 22 22 21 21 21 20 20 19 19 19 19 18 18 18 18 17 17 17 17 17 17 17 17 17 17 17 17 17 17 17 17 17 17 17 16 16 15 14
24 23 26 28 26 27 28 28 28 28 27 25 24 25 27 27 26 23 21 21 21 21 22 22 22 23 22 24 28 29 28 28 28 28 27 27 27 26 26 26 26 26 25 25 25 25 24 23 22 22 22 21 21 21 20 19 19 19 18 19 18 18 18 17 17 17 17 17 17 17 17 17 17 17 17 17 17 17 17 17 17 17 16 16 15 14
26 23 25 28 27 26 28 27 26 27 28 27 26 28 27 23 22 23 21 21 21 21 21 22 22 22 22 23 27 28 28 28 28 28 27 27 27 26 26 26 26 25 25 25 25 25 24 24 23 22 22 22 21 21 21 20 19 19 19 19 18 18 18 18 17 17 17 17 17 17 17 17 17 17 17 18 18 17 17 17 17 17 16 16 15 14
28 23 23 27 28 27 27 27 24 24 27 28 28 28 27 24 23 23 22 22 21 21 21 21 22 22 24 26 28 28 29 29 28 28 28 28 27 27 26 26 26 25 25 25 25 25 24 24 23 22 22 22 22 21 21 20 19 19 19 19 19 18 18 18 18 18 17 17 18 18 18 17 17 18 18 18 18 17 18 18 18 17 16 16 15 15
28 25 22 25 28 26 25 26 25 24 26 26 25 25 25 25 25 24 23 23 22 21 21 21 21 22 26 29 29 29 29 29 29 28 28 28 28 27 27 26 26 26 25 25 25 25 24 24 23 22 22 22 22 21 21 20 20 19 19 19 19 18 18 18 18 18 17 18 18 18 18 18 18 18 18 18 18 18 18 18 18 17 17 16 15 15
27 26 23 23 24 23 24 28 28 27 28 27 26 25 25 25 24 23 22 23 23 22 21 22 21 22 27 30 29 29 29 29 30 29 29 29 28 28 27 26 26 26 25 25 25 25 25 24 23 23 22 22 22 22 21 21 20 20 19 19 19 18 18 18 18 18 18 18 18 18 18 18 18 18 18 18 18 18 18 18 17 17 16 16 16 15
26 27 24 22 25 26 27 28 27 27 29 28 28 28 28 27 24 21 21 22 22 22 22 22 21 23 28 30 29 29 29 29 30 29 29 29 29 28 27 26 26 26 25 25 25 25 25 24 23 23 23 22 22 22 22 21 20 20 20 19 19 18 18 18 18 18 18 18 18 18 18 18 18 18 18 18 18 18 18 18 17 17 17 16 16 15
25 26 24 22 25 28 28 28 27 28 28 28 28 29 28 27 26 24 24 23 22 22 22 22 21 23 27 29 29 29 29 29 29 29 29 29 28 28 27 26 26 25 25 25 25 25 25 24 24 23 23 23 22 22 21 21 20 20 20 19 19 19 18 18 18 18 18 18 18 18 18 18 18 18 18 18 18 18 18 18 17 17 17 17 16 16
25 25 24 22 23 24 24 25 25 26 27 27 28 28 28 28 27 26 25 24 22 22 22 22 21 23 27 29 29 29 29 29 29 28 28 28 27 27 27 26 26 25 24 24 24 24 24 24 24 24 23 23 23 22 21 21 20 20 20 19 19 19 19 19 19 19 19 18 18 18 18 18 18 18 18 18 18 18 18 18 18 17 17 17 16 16
26 26 25 22 21 21 22 22 22 24 26 27 27 28 28 28 27 25 23 22 21 22 22 22 21 24 28 30 30 30 29 29 29 28 28 28 27 27 27 26 25 25 24 24 24 23 23 23 24 24 23 23 23 22 22 21 21 21 20 20 19 19 19 19 19 19 19 19 18 18 18 18 18 18 18 18 18 18 18 18 18 17 17 17 17 16
27 27 26 23 22 22 22 23 24 25 25 25 26 27 27 27 27 26 23 21 22 22 22 23 23 24 26 29 30 30 30 29 29 28 28 27 27 26 27 26 25 25 24 24 24 23 22 23 23 24 23 23 23 22 22 21 21 21 20 20 19 19 19 19 19 19 19 19 19 18 18 18 18 18 18 18 18 18 18 18 18 18 18 18 17 16
26 25 25 24 24 25 26 26 26 26 25 25 25 26 26 27 26 25 23 23 23 22 21 24 25 23 25 29 30 29 29 29 29 29 28 28 26 26 26 25 25 25 24 24 23 23 22 22 23 24 23 23 23 22 22 22 21 21 21 20 20 19 19 19 19 19 19 19 19 19 19 18 18 18 18 18 18 18 18 18 18 18 18 18 17 17
25 24 24 25 25 26 27 26 26 26 26 27 26 26 26 26 25 24 24 25 25 22 22 25 25 24 26 29 30 29 29 29 29 29 28 28 27 26 26 25 25 25 24 24 24 23 23 22 23 23 23 22 22 22 22 22 22 21 21 20 20 20 19 19 19 19 19 19 19 19 19 19 19 19 18 18 18 18 18 18 18 18 18 17 17 17
25 24 25 25 25 25 26 26 26 26 26 26 27 27 27 27 26 26 26 27 26 24 25 26 25 25 28 29 29 29 28 28 28 27 28 28 27 27 26 26 26 25 25 25 24 24 23 23 23 23 23 22 22 22 22 22 22 22 21 21 20 20 20 19 19 19 19 19 19 19 19 19 19 19 19 19 19 18 18 18 18 18 18 17 17 17
24 23 24 25 24 24 25 26 26 26 26 25 26 28 27 27 27 27 26 27 25 24 26 26 24 25 28 29 28 28 27 27 28 27 28 28 28 27 27 27 27 26 26 25 25 24 24 23 23 23 23 22 22 22 22 22 22 22 22 21 21 20 20 20 19 19 19 19 19 19 19 19 19 19 19 19 19 19 19 18 18 18 18 18 17 17
25 24 25 25 23 22 24 26 25 26 26 25 24 26 26 25 25 26 26 26 25 25 25 24 23 25 28 28 28 28 27 28 28 28 28 28 28 28 27 27 27 27 27 26 26 25 24 24 23 23 23 22 22 22 22 22 22 22 22 21 21 21 21 20 20 19 19 20 20 20 20 19 19 19 19 19 19 19 19 19 19 18 18 18 17 17
26 25 25 24 22 21 24 26 25 25 24 22 23 25 25 25 26 26 26 27 26 26 25 24 24 26 28 28 28 29 28 27 28 28 28 28 29 28 28 28 28 27 27 27 26 25 25 24 24 23 22 22 22 22 22 22 22 23 22 22 21 21 21 20 20 20 20 20 20 20 20 20 20 20 20 20 19 19 19 19 19 18 18 18 17 17
25 25 25 24 22 21 24 25 24 23 21 21 24 25 25 26 26 26 26 27 27 27 27 27 26 27 28 28 28 28 28 27 27 28 28 28 28 28 28 28 28 28 27 26 26 26 25 25 24 23 22 22 22 22 22 22 22 22 22 22 22 21 21 21 20 20 20 20 20 20 20 20 20 20 20 20 20 20 19 19 19 19 18 18 18 17
24 24 25 24 23 22 23 23 22 21 21 23 25 24 24 24 25 25 26 27 27 27 27 27 27 27 28 28 28 28 28 28 27 28 28 28 28 28 28 28 27 27 27 26 26 26 25 25 24 23 22 22 22 22 22 22 22 22 22 22 22 22 21 21 21 21 21 20 20 20 20 20 20 20 20 20 20 20 20 19 19 19 18 18 18 17
24 24 24 24 23 23 22 22 21 22 24 25 24 24 23 24 25 25 25 26 26 26 27 27 27 27 27 28 28 28 27 27 28 28 28 28 28 28 28 28 28 27 27 26 26 25 25 25 24 23 22 22 22 22 22 22 22 22 22 22 22 22 21 21 21 21 21 21 21 21 21 20 20 20 20 20 20 20 20 20 19 19 19 18 18 17
24 24 23 23 23 22 21 21 22 23 24 23 23 23 23 23 23 23 23 24 26 25 25 26 26 27 27 27 27 27 27 27 28 28 29 28 28 28 28 28 28 27 27 27 26 25 25 24 24 23 22 22 22 22 22 22 22 22 22 22 22 22 21 21 21 21 21 21 21 21 21 21 21 20 20 20 20 20 20 20 19 19 18 18 18 17
24 24 23 22 22 22 21 21 22 22 21 21 22 23 22 22 22 22 22 24 24 24 24 24 25 26 27 27 27 26 26 27 28 28 28 28 28 28 28 28 28 28 27 27 26 25 24 24 23 23 22 22 22 22 22 22 22 22 22 22 22 22 22 22 22 21 21 21 21 21 21 21 21 21 21 20 20 20 20 20 19 19 18 18 18 17
23 23 24 22 22 22 21 21 21 21 21 21 22 23 23 22 21 21 22 22 23 23 23 23 24 25 26 26 26 26 27 28 27 27 27 27 28 28 28 28 28 28 27 27 26 26 25 23 23 23 22 22 22 22 22 22 21 22 22 22 22 22 22 22 22 22 22 21 21 21 21 21 21 21 21 21 20 20 20 20 19 19 18 18 18 17
23 23 23 22 21 22 21 21 21 21 21 21 21 22 23 22 21 22 21 21 21 22 22 22 23 24 24 25 26 26 27 27 26 26 26 27 27 28 28 28 28 28 27 27 26 25 24 23 23 23 22 22 22 22 22 22 21 22 22 22 22 22 22 22 22 22 22 22 21 21 21 21 21 20 20 21 20 20 20 20 19 19 18 18 17 17
22 23 23 22 21 21 21 21 21 21 20 20 21 22 22 22 21 21 20 20 21 21 21 22 22 23 23 24 25 26 26 26 25 26 26 26 27 27 27 27 27 27 27 27 25 24 24 24 23 23 23 22 22 22 22 22 22 21 22 22 22 22 22 22 22 22 22 22 21 21 21 21 20 20 20 20 20 20 20 19 19 18 18 17 17 17
21 21 22 22 21 21 21 21 21 21 19 20 21 21 22 22 20 19 20 20 21 21 21 21 22 22 22 23 24 25 25 25 25 26 26 25 26 26 26 26 26 26 26 25 23 23 24 24 23 24 24 23 22 22 22 22 22 22 22 22 22 22 22 22 22 22 22 22 21 21 21 21 20 20 19 19 19 19 19 19 18 18 17 16 16 16
20 20 21 21 20 21 21 21 21 20 19 20 21 20 20 20 19 19 20 21 21 21 20 20 21 22 22 22 23 24 24 25 25 25 25 24 24 24 24 24 24 24 24 24 23 23 24 24 24 23 24 23 23 22 22 22 21 22 22 22 22 22 22 22 22 21 21 21 21 21 20 20 20 19 19 19 18 18 18 18 18 17 16 16 16 15
20 20 20 20 19 20 20 20 19 18 17 19 19 19 19 19 19 19 20 20 21 21 20 20 20 20 20 21 22 23 24 24 24 24 24 23 23 23 23 23 23 23 23 23 23 23 23 24 24 24 23 23 23 22 22 22 21 21 21 21 21 21 21 21 21 21 21 21 20 20 20 20 19 19 18 18 18 17 18 18 17 17 16 16 16 15
20 20 20 20 19 19 19 19 19 18 17 18 18 18 18 19 19 19 20 20 20 20 20 20 19 19 19 20 22 23 23 23 23 23 23 22 22 22 22 22 22 22 22 22 22 22 22 23 24 23 23 22 22 22 22 22 22 21 21 21 21 21 21 21 20 20 20 20 20 20 20 20 20 19 19 19 18 18 18 18 17 17 17 16 16 16
20 20 20 20 20 20 19 19 19 19 18 18 18 17 17 17 18 18 19 20 20 20 20 20 19 19 19 20 21 22 22 22 22 22 21 22 21 21 21 21 21 21 21 21 21 20 21 22 22 22 22 22 21 21 21 21 21 21 21 21 20 20 21 20 20 20 20 20 20 20 20 20 20 20 20 19 19 19 19 18 18 17 17 17 16 16
20 20 20 20 20 19 19 19 20 19 18 18 19 18 18 17 16 17 18 19 19 20 19 19 19 19 19 19 20 20 21 21 22 21 21 21 20 20 20 20 20 19 20 20 20 20 21 22 22 22 22 21 20 20 20 21 21 21 21 20 20 20 20 20 20 20 20 20 20 20 20 20 20 20 20 19 18 19 18 18 18 17 17 17 17 17
19 19 20 20 20 19 19 20 20 18 17 17 18 18 18 17 16 16 17 17 18 19 19 19 19 19 18 18 18 19 20 20 20 20 21 20 19 19 19 19 19 19 19 19 19 20 21 21 21 21 21 20 19 19 19 19 20 19 19 19 20 20 20 20 20 20 20 20 20 20 20 20 19 19 19 18 18 18 18 18 18 17 17 17 17 17
19 19 20 20 20 20 20 20 19 18 17 17 16 16 17 17 16 16 16 15 16 17 18 18 19 18 18 18 18 18 18 18 19 19 20 19 19 19 19 19 18 18 18 18 18 18 19 19 19 19 19 19 18 18 18 18 18 18 18 18 19 19 20 20 20 20 20 20 20 19 19 19 18 18 18 18 17 17 17 17 17 17 17 16 16 16
19 18 19 19 19 20 19 18 18 18 17 16 16 15 16 16 16 16 16 15 15 15 15 16 16 16 17 17 17 18 17 17 18 18 18 18 18 18 18 18 18 18 18 18 17 17 17 17 17 17 17 17 17 17 17 17 17 17 17 18 18 18 19 19 19 19 19 20 19 19 19 19 18 18 18 18 18 17 17 16 16 16 16 15 15 15
18 17 17 17 17 18 19 18 17 18 17 16 15 15 15 15 15 15 15 15 15 15 15 15 15 15 15 14 15 16 16 16 17 17 17 18 18 17 18 18 18 17 17 17 17 17 16 16 16 16 16 16 16 16 16 16 17 17 17 17 18 18 19 19 19 20 19 19 18 18 18 19 18 18 18 18 18 18 17 16 15 15 15 14 14 14
Height
776 787 792 787 787 787 780 773 772 771 771 776 777 779 781 784 787 785 786 785 785 794 797 793 794 795 794 797 802 807 810 810 809 809 810 810 810 810 810 810 811 812 813 815 818 821 823 825 827 830 831 833 836 837 839 840 841 842 843 845 845 846 847 847 848 849 849 849 850 851 851 852 853 854 854 855 855 855 854 854 853 853 852 851 850 848
781 796 794 782 781 783 778 774 774 772 771 772 774 779 780 781 786 785 786 785 785 793 795 792 795 795 792 794 797 803 808 809 807 809 810 809 810 810 809 810 810 811 812 814 817 820 822 824 827 829 831 833 835 837 839 839 840 842 843 844 845 846 847 847 848 849 849 849 850 851 851 852 853 854 854 855 855 855 855 855 854 854 853 852 851 849
798 801 792 782 777 778 778 776 775 772 771 772 771 776 780 782 786 788 787 785 787 792 792 792 794 793 791 791 794 800 804 804 803 804 806 807 808 809 810 810 810 811 813 814 816 819 821 823 825 828 830 832 834 836 837 838 840 841 842 844 845 846 846 847 848 849 849 850 850 851 852 852 853 854 855 855 856 856 856 855 855 855 854 853 852 851
808 794 782 776 769 770 773 771 772 771 769 769 769 773 777 780 786 793 792 787 787 789 789 791 791 790 791 793 794 797 799 800 800 801 803 804 806 806 807 808 809 811 812 814 815 817 819 822 824 827 829 831 833 835 836 837 839 840 842 843 844 845 846 847 848 849 850 851 852 852 853 854 854 855 856 856 856 856 856 856 856 855 854 854 853 852
794 773 764 764 762 764 767 769 773 776 774 769 769 772 775 778 781 786 789 787 789 790 787 790 792 788 790 795 795 794 796 800 800 802 803 803 803 803 804 806 807 808 810 812 814 815 817 820 823 825 827 830 831 833 834 836 838 839 841 842 843 845 846 847 848 849 850 851 852 853 854 855 855 856 856 856 856 856 856 856 856 856 855 854 853 852
771 758 757 761 762 762 764 768 772 780 785 780 772 769 770 774 777 781 785 788 794 795 787 788 798 795 787 789 791 792 797 799 797 799 802 802 801 802 803 804 804 805 807 809 811 813 815 818 821 824 826 828 830 831 833 835 837 838 840 841 843 844 845 847 847 849 850 851 852 853 853 854 854 855 855 855 856 856 856 856 856 856 855 855 854 853
761 757 758 761 763 763 765 766 765 772 785 784 774 768 768 771 777 782 785 787 792 793 786 784 797 802 791 783 782 786 794 796 794 796 797 797 797 798 800 801 802 803 804 806 809 811 814 816 819 822 824 826 828 829 832 834 835 837 839 840 842 843 844 846 847 848 850 850 851 852 852 853 853 854 855 856 856 856 856 856 856 856 856 855 855 854
759 760 761 761 762 764 763 763 761 763 778 783 773 768 769 772 778 781 783 785 783 784 786 782 787 796 790 778 775 780 789 792 792 793 793 792 793 793 795 796 798 800 801 804 807 809 812 814 816 819 822 824 826 828 830 832 834 836 838 839 841 842 844 845 847 848 849 850 851 851 852 852 853 853 855 856 856 857 857 856 856 856 856 856 855 854
755 761 763 762 763 762 760 760 758 759 775 781 769 765 768 772 777 777 779 783 781 785 790 783 784 792 786 775 772 777 786 790 788 788 788 788 789 790 791 793 794 796 798 801 804 807 809 812 815 817 820 823 825 827 829 831 833 835 837 838 840 841 843 844 846 847 848 850 850 851 851 852 853 854 855 856 856 856 856 856 856 856 856 856 855 855
754 758 759 761 761 759 759 760 756 758 769 771 765 766 769 771 774 776 778 781 785 792 793 785 785 791 789 780 777 781 784 783 780 780 781 782 784 786 787 790 791 793 795 798 800 804 807 810 813 816 818 821 823 825 828 830 832 834 835 837 839 840 842 844 845 847 847 849 850 851 851 852 853 853 854 855 855 856 856 856 856 856 856 856 855 855
753 752 754 759 759 756 757 759 758 760 763 765 766 770 773 774 775 777 776 780 791 797 791 785 783 789 794 783 772 776 776 770 770 773 775 777 778 781 784 786 788 790 792 794 797 800 805 808 811 814 816 819 822 824 826 829 830 832 834 836 838 839 841 842 844 846 847 848 849 850 851 851 852 853 854 854 855 855 855 856 856 856 856 856 855 855
753 756 757 758 757 754 757 761 762 761 761 764 767 769 778 782 780 782 783 786 797 799 789 783 781 789 796 779 761 763 762 759 762 765 768 773 774 776 779 781 783 786 788 791 794 797 801 806 809 812 814 817 820 823 825 827 828 830 833 834 836 838 839 841 843 845 846 847 848 849 850 851 851 852 853 853 854 854 854 855 855 855 855 855 855 855
757 760 760 760 758 753 757 767 770 767 764 766 767 772 784 789 791 796 793 790 793 794 786 782 784 791 789 770 757 757 755 755 757 757 760 765 769 772 774 777 779 782 785 788 791 794 797 802 806 809 812 814 818 820 823 825 827 829 831 833 835 836 838 840 842 844 845 846 847 848 849 850 851 852 852 852 852 853 853 854 854 855 855 855 855 855
767 767 762 764 763 754 757 769 775 773 768 768 768 774 785 792 805 809 797 791 794 793 785 780 786 789 779 765 755 752 751 751 752 753 755 758 762 767 769 772 776 778 782 784 787 791 794 799 803 806 809 812 815 818 820 823 826 827 829 831 833 835 837 839 840 842 844 845 846 847 848 849 850 851 851 851 851 852 853 853 853 854 854 854 854 854
775 779 766 764 763 757 760 764 763 762 764 766 762 767 778 783 798 804 795 795 796 789 784 786 789 783 776 769 755 748 749 749 750 751 752 755 757 762 766 769 773 776 778 781 784 787 791 796 800 803 807 810 812 815 818 821 823 825 827 829 832 833 835 837 839 841 842 844 845 846 847 848 849 849 850 851 851 851 852 852 852 853 853 853 854 854
771 775 761 758 758 756 761 758 752 757 769 770 760 767 777 772 777 789 792 791 791 791 786 786 782 764 758 758 746 746 750 747 750 751 751 756 756 758 764 766 770 773 775 778 782 785 789 794 798 801 804 807 810 813 816 818 821 823 825 828 830 832 833 835 837 839 841 842 844 845 846 847 848 848 849 850 850 851 851 851 852 852 852 852 853 853
769 771 759 758 760 755 757 756 752 759 772 774 769 772 770 761 765 784 797 792 791 800 789 775 771 757 757 762 747 746 752 748 752 752 752 756 756 758 763 764 767 771 773 776 779 782 787 791 796 798 802 805 807 810 813 816 818 821 823 826 828 830 832 834 835 837 839 841 842 843 844 846 846 847 848 848 849 850 850 851 851 851 851 851 852 852
762 769 760 757 763 758 752 755 755 755 760 768 772 768 761 764 769 776 794 795 791 798 786 772 772 766 769 772 754 747 753 752 752 752 753 756 757 760 762 763 766 767 770 774 776 780 784 788 793 796 799 802 804 808 810 813 816 819 821 824 826 828 830 832 834 835 837 839 841 842 843 844 845 846 847 847 848 849 849 850 850 850 850 850 851 851
756 769 766 756 761 761 754 757 763 758 754 759 763 757 761 781 785 778 788 796 793 797 790 776 772 767 766 763 753 751 754 752 752 751 753 756 756 759 760 761 765 766 769 772 774 778 781 786 790 793 797 800 802 806 808 811 814 816 819 822 824 827 828 830 832 834 836 837 839 840 841 842 843 844 845 846 847 847 848 848 848 849 849 849 849 849
754 768 772 760 755 760 758 759 769 770 761 758 758 756 760 771 777 775 779 783 787 795 794 785 777 768 760 752 750 752 750 749 753 752 752 753 754 756 757 759 762 764 767 770 772 775 778 783 787 790 794 797 799 803 806 809 812 814 817 820 822 825 827 829 830 832 834 835 836 838 839 841 842 843 844 844 845 846 846 847 847 847 847 847 848 848
754 762 771 765 756 763 766 762 769 774 768 765 765 765 766 765 767 772 772 770 776 788 794 795 789 770 752 746 746 748 747 746 748 749 749 749 750 752 754 756 758 761 765 767 769 772 775 780 785 788 792 794 797 801 803 807 810 812 815 817 820 823 825 827 829 830 832 833 834 836 837 839 840 841 842 843 844 844 845 845 845 846 846 846 846 847
756 758 765 767 764 767 766 756 756 760 758 760 762 760 761 764 768 778 783 774 770 779 784 791 794 772 747 744 745 743 745 744 742 745 747 746 747 750 751 754 756 758 762 764 766 769 773 777 782 785 789 792 795 798 801 804 807 810 812 815 817 820 822 825 827 828 830 831 833 834 835 837 838 839 841 841 842 843 843 844 844 844 845 845 845 845
755 755 761 765 759 757 757 752 753 754 750 752 754 752 754 759 764 777 787 779 770 775 775 780 789 772 745 741 744 742 743 742 740 743 744 744 746 747 750 753 755 757 760 762 764 767 770 774 779 783 786 789 792 795 798 801 804 807 810 812 815 817 820 822 825 826 828 829 831 832 834 835 836 838 839 839 840 841 841 842 842 842 843 843 843 844
757 759 763 763 754 749 751 750 751 752 752 755 755 752 755 758 759 765 770 770 774 777 773 778 789 775 751 742 742 742 742 741 741 742 743 745 745 747 749 751 754 757 759 761 763 765 769 772 776 780 783 786 789 793 796 799 802 805 807 810 812 814 817 820 822 824 826 827 829 830 832 833 834 836 837 837 838 839 839 840 840 841 841 842 842 842
759 762 765 769 770 768 765 763 764 762 757 756 755 754 756 755 759 764 763 767 777 775 769 780 786 770 751 743 739 740 741 741 742 741 741 744 746 747 748 749 753 756 758 760 763 765 768 771 774 777 780 783 786 790 793 796 799 802 805 807 809 812 815 817 820 822 823 825 827 828 830 831 832 833 834 835 836 836 837 838 838 839 839 840 840 840
758 761 763 771 780 782 780 778 779 771 759 755 755 756 757 756 760 767 770 777 782 772 768 777 774 757 745 740 738 740 741 741 742 742 742 743 745 745 746 748 752 755 757 760 762 764 767 768 771 774 777 780 783 787 790 793 797 799 802 805 807 810 812 814 817 819 821 823 824 826 828 829 830 831 831 833 833 834 835 835 836 836 837 837 838 838
757 759 758 766 773 773 770 769 767 761 759 760 759 757 758 758 758 763 773 780 777 772 770 766 760 756 752 744 739 740 740 741 742 743 743 744 745 745 745 748 750 752 755 757 760 763 765 767 769 771 775 778 780 784 787 790 793 796 799 802 804 807 809 811 814 816 818 820 821 823 825 826 827 828 829 830 831 831 832 833 833 834 834 835 836 836
761 762 761 766 768 763 759 759 760 760 761 760 758 757 758 759 761 765 771 772 770 776 777 761 755 762 757 745 741 741 740 740 740 740 741 742 744 745 745 747 749 751 753 755 758 761 763 765 767 769 772 776 778 781 784 787 790 793 796 799 801 804 807 809 811 813 815 817 818 820 822 823 825 826 827 827 828 829 830 830 831 831 832 833 833 834
763 764 763 764 764 760 757 759 761 761 760 757 756 757 757 759 763 766 765 762 764 772 769 758 758 762 753 744 740 739 740 741 739 739 739 740 742 744 745 748 749 750 751 752 755 757 759 762 764 766 770 773 775 779 781 783 787 789 793 796 798 801 804 806 808 810 812 813 815 817 819 821 822 823 824 825 825 826 827 828 829 829 830 831 831 831
762 766 764 764 762 760 760 761 760 759 759 757 755 753 754 755 757 759 757 754 758 762 756 753 759 758 748 743 739 736 738 739 738 739 739 739 741 742 744 746 746 747 749 750 751 753 756 758 761 764 767 770 773 775 778 780 783 786 789 792 795 798 800 803 805 807 809 810 812 814 816 818 819 820 821 822 822 824 824 825 826 826 827 828 828 829
762 767 766 762 762 764 762 760 760 759 758 757 754 751 754 756 755 755 756 756 759 761 754 754 761 756 744 740 739 737 738 737 738 739 739 738 739 740 742 743 743 744 745 746 748 750 753 756 758 762 765 767 770 772 775 778 779 782 786 788 792 794 797 800 802 804 806 807 808 811 813 815 816 817 818 819 820 821 821 822 823 823 824 825 825 826
760 765 763 760 767 772 764 759 761 757 754 758 760 755 758 763 761 756 755 756 758 759 757 759 761 753 741 738 738 737 737 737 737 737 738 737 736 738 741 740 740 742 742 743 745 747 750 753 755 759 762 764 767 769 772 774 777 779 782 785 788 791 794 797 799 800 802 804 806 808 810 811 813 814 815 816 816 818 818 819 820 820 821 821 822 822
760 763 761 761 773 776 763 757 759 758 763 773 770 760 759 762 759 754 753 752 752 754 757 759 756 748 740 738 738 736 737 740 738 736 736 736 735 735 737 737 737 738 739 740 741 744 747 749 752 756 759 761 765 768 770 772 774 776 779 782 785 788 791 793 795 797 799 801 803 805 806 808 809 810 812 812 813 815 815 816 816 817 817 818 818 819
764 764 761 762 774 775 763 758 763 770 780 780 765 755 756 757 755 755 753 749 747 748 748 747 747 745 740 738 739 738 738 740 738 734 733 733 735 735 735 735 735 735 737 738 739 741 743 746 750 753 756 759 762 766 770 771 772 774 776 779 782 784 787 789 792 794 796 797 800 801 803 805 806 807 808 809 811 812 812 813 813 814 814 815 815 816
767 767 764 764 769 768 760 764 780 787 780 767 756 755 758 755 753 754 751 746 745 746 744 744 745 744 738 735 736 735 734 734 733 732 730 730 732 733 734 735 735 735 737 738 738 739 741 744 748 750 754 757 760 763 767 769 770 773 775 777 780 782 784 786 789 791 792 794 796 798 800 801 802 804 805 806 808 808 809 810 810 810 811 811 812 812
767 768 768 767 767 768 769 775 785 780 762 755 757 757 756 756 755 756 755 752 749 747 746 745 744 742 740 736 734 732 733 733 731 729 728 728 729 730 732 733 733 734 735 736 737 739 740 743 746 748 752 755 758 761 763 766 768 771 773 775 777 779 782 784 786 788 789 791 793 794 796 798 799 801 802 803 804 805 805 806 806 807 808 808 809 809
762 765 770 772 770 772 775 774 770 764 760 764 765 760 760 762 760 762 764 758 750 748 748 747 744 742 742 740 735 733 733 733 733 729 725 725 727 728 729 730 731 732 732 734 735 738 740 742 745 747 750 753 755 758 761 764 767 768 770 773 775 777 779 781 783 784 786 788 790 791 793 794 796 797 798 799 800 801 802 803 803 804 804 805 805 805
761 762 768 776 774 770 775 777 774 774 776 776 771 763 762 763 761 764 765 759 753 750 750 751 748 743 741 739 737 737 736 736 737 734 728 727 727 727 728 729 730 730 731 733 735 737 739 742 744 746 749 751 753 756 759 762 764 766 768 770 772 774 776 778 779 781 783 784 786 788 790 791 793 794 795 796 797 797 798 799 800 801 801 801 802 802
764 762 764 773 775 771 775 782 783 782 780 777 772 764 759 761 761 763 765 763 760 756 753 752 751 746 743 741 739 739 740 739 739 737 734 731 728 727 728 729 729 731 732 733 735 736 738 741 743 745 747 749 751 754 756 759 761 763 765 767 769 771 773 774 776 777 779 781 783 785 786 788 789 790 792 792 793 794 795 796 797 797 797 798 798 799
767 766 766 773 775 771 775 779 777 779 780 776 771 765 761 760 761 767 776 775 766 760 757 755 753 750 746 743 741 742 743 743 744 740 735 731 729 728 728 729 729 731 732 733 735 736 738 740 742 744 746 747 749 752 754 757 759 761 763 764 766 768 769 771 773 774 776 778 780 782 783 784 786 787 788 789 790 791 792 792 793 794 794 794 795 796
771 771 770 774 773 769 775 778 773 777 783 778 772 768 762 760 765 777 787 782 769 764 762 757 755 752 749 746 744 743 742 742 742 738 733 731 731 730 729 730 730 731 732 733 735 737 738 739 741 742 744 746 748 750 753 755 757 759 761 762 764 764 766 768 770 772 774 776 777 779 780 781 782 783 784 785 786 787 788 789 790 790 791 792 793 793
784 780 773 775 776 770 771 773 771 778 784 778 772 768 762 767 782 790 786 778 771 767 763 759 756 753 751 748 746 743 742 739 737 736 734 733 733 732 731 732 732 733 734 735 736 737 738 739 740 741 743 745 747 749 751 753 755 757 759 760 760 762 764 766 768 770 771 773 774 776 777 778 779 780 781 782 783 784 785 785 786 787 788 789 790 790
789 788 781 782 785 777 772 774 781 789 788 778 774 775 774 780 791 790 780 774 771 767 765 763 759 755 754 752 747 744 742 740 738 737 736 735 735 734 734 733 733 734 735 735 737 738 738 739 740 741 742 744 746 748 749 751 753 755 756 757 758 760 763 764 766 767 769 770 772 773 774 775 776 777 778 779 780 782 782 783 783 784 784 785 786 786
786 789 789 790 792 790 788 789 793 797 793 784 782 786 786 785 785 781 778 775 771 768 767 765 761 759 758 755 750 747 744 742 741 740 739 739 738 737 736 735 735 736 736 736 737 738 738 739 739 741 743 744 745 747 749 750 752 753 754 756 758 760 762 762 764 766 767 768 769 770 771 772 773 775 775 776 777 778 779 779 780 780 781 781 782 783
786 787 790 791 790 791 793 792 789 789 789 788 788 788 787 784 781 778 778 775 773 771 769 766 765 763 760 756 752 749 746 745 743 742 742 742 741 740 739 738 738 738 737 737 738 739 739 740 740 741 743 744 746 748 749 750 752 752 754 756 758 759 760 761 762 763 764 766 766 767 768 769 771 772 772 773 774 774 775 776 777 778 778 779 779 780
785 784 787 787 785 785 787 786 784 784 785 785 785 786 788 787 784 780 777 776 775 774 771 769 768 765 761 759 756 752 751 749 746 744 744 744 743 743 742 742 742 741 740 739 739 740 740 740 741 742 743 744 746 748 749 750 751 752 754 755 756 757 758 759 760 761 762 763 764 764 765 766 767 768 769 770 771 772 772 773 774 774 775 776 777 777
785 785 785 785 786 790 792 788 783 785 787 785 783 784 785 787 787 783 780 778 777 775 773 772 769 766 764 763 761 758 757 754 750 748 747 745 745 745 744 744 745 744 743 743 742 741 741 741 741 742 743 745 746 748 749 750 751 752 753 754 755 756 758 758 759 760 761 761 762 762 763 764 764 765 766 767 768 769 769 770 771 772 773 773 774 774
788 787 786 786 788 790 790 786 783 786 789 788 787 786 785 787 787 784 782 781 779 776 775 773 770 769 767 766 765 763 761 759 757 754 751 749 748 747 747 747 747 746 746 746 745 743 743 742 742 743 744 745 747 748 749 750 751 752 753 754 755 756 757 757 758 759 759 759 760 760 761 762 762 763 764 765 766 767 768 768 769 770 770 771 772 772
788 788 787 786 785 784 783 784 785 788 790 790 790 790 788 787 787 785 784 785 783 780 778 776 773 772 771 769 769 768 767 765 762 760 758 756 753 750 750 750 750 749 749 749 748 748 747 746 746 746 746 747 748 749 750 751 752 753 753 754 755 755 756 757 757 757 758 758 758 759 760 760 761 762 763 764 765 766 767 767 768 769 770 770 770 771
790 793 790 788 789 788 787 789 790 790 793 794 793 792 790 789 789 787 786 786 785 785 783 781 779 777 776 773 772 772 772 770 767 766 765 763 761 758 755 753 752 752 752 752 752 752 751 751 751 751 750 751 751 752 752 753 753 754 754 754 754 755 755 756 757 757 758 758 758 759 759 760 761 762 762 763 764 765 766 766 767 768 769 769 770 770
795 798 796 797 799 794 789 790 790 790 793 795 794 793 792 790 791 791 789 787 787 786 785 784 783 782 781 779 777 777 777 775 772 772 771 769 769 767 763 760 758 756 756 756 755 755 755 755 755 755 755 755 756 756 756 756 756 756 756 756 756 756 756 756 756 756 757 758 759 760 760 761 762 763 763 763 764 764 765 766 767 768 768 769 769 769
Wind_Speed
3 3 4 5 7 8 11 10 4 2 4 5 4 4 4 4 5 5 6 9 10 7 5 5 3 4 6 8 10 9 9 9 9 9 9 9 10 9 9 9 10 10 10 13 16 16 16 16 16 15 15 14 14 14 14 14 14 13 13 12 11 10 10 11 12 13 13 13 13 12 12 12 11 11 10 10 9 8 8 8 8 8 8 9 11 12
5 4 5 7 8 11 12 10 6 4 4 4 3 4 4 3 4 6 5 8 9 6 4 5 4 5 6 7 10 10 10 10 10 11 10 10 10 9 10 11 10 9 10 13 15 16 17 16 17 15 15 15 15 15 15 14 13 12 13 13 12 11 10 10 11 12 12 12 12 12 12 12 11 10 10 10 8 7 7 7 7 8 8 9 10 11
5 5 9 12 11 13 14 13 11 7 4 3 3 3 3 4 5 6 5 7 8 5 3 6 5 4 7 7 9 10 10 9 10 11 11 11 11 10 11 11 11 10 11 13 14 16 17 16 17 15 15 16 15 16 15 14 14 13 13 13 12 10 10 10 11 12 12 11 11 11 11 11 10 9 8 8 7 6 7 7 7 8 8 9 9 10
5 7 13 15 11 10 11 12 10 6 5 3 2 2 4 6 5 4 5 8 8 4 1 4 5 4 7 7 8 10 10 8 9 11 10 11 11 11 12 11 12 12 12 13 14 15 16 16 16 16 16 16 16 16 15 14 15 13 12 12 11 11 10 10 11 11 12 11 10 10 10 9 9 7 6 7 6 6 6 6 6 7 8 8 9 10
9 6 8 10 8 9 9 8 7 4 3 2 2 1 3 6 4 2 7 8 7 6 4 4 6 5 8 9 9 9 10 10 10 11 11 11 12 11 12 12 13 13 13 14 14 14 15 16 16 16 17 17 16 16 16 16 15 13 12 12 11 11 11 10 11 11 12 12 12 11 10 9 8 7 7 7 6 5 5 5 6 6 7 7 8 9
6 4 4 6 7 9 7 6 8 5 3 3 3 0 2 5 4 6 9 8 5 6 5 5 5 3 8 10 10 10 11 12 12 13 14 13 13 12 12 13 13 13 13 14 15 15 16 17 17 17 17 17 17 16 16 17 16 14 12 12 12 12 12 11 12 12 12 12 11 11 11 10 9 9 8 7 6 5 5 5 5 5 6 6 7 8
1 2 4 6 6 7 7 5 9 9 5 3 4 1 3 5 5 7 9 6 2 1 4 5 5 0 5 9 11 12 13 14 13 14 15 15 14 14 13 13 13 13 13 13 14 15 16 17 17 18 18 18 17 16 16 16 16 15 13 13 12 12 13 12 12 13 12 11 12 11 11 11 10 9 8 5 5 5 4 4 4 4 5 5 6 7
2 3 4 5 6 7 6 3 7 9 5 2 4 4 6 6 6 7 6 4 1 1 4 6 5 4 3 6 10 13 13 14 15 15 15 15 16 16 15 14 14 14 13 13 13 14 15 17 18 18 18 18 17 16 16 16 16 16 14 13 13 13 13 13 13 13 12 11 12 13 11 11 10 9 7 5 5 5 4 4 4 3 4 5 5 6
3 1 2 2 6 6 2 3 5 7 2 4 5 5 6 6 5 5 4 1 1 2 4 5 3 5 1 6 9 12 12 13 15 16 17 17 17 17 16 16 16 15 15 14 14 14 16 18 18 18 18 18 18 17 16 17 17 16 15 14 14 14 14 13 13 13 13 12 13 13 12 11 10 8 7 6 6 5 5 4 3 3 3 4 4 5
1 3 5 6 4 3 5 5 4 4 3 6 7 6 6 5 4 3 2 1 1 3 0 4 3 5 0 5 7 9 10 12 13 14 16 17 18 17 17 17 16 15 15 14 14 16 18 19 19 18 17 17 18 17 17 17 17 17 16 14 14 15 14 14 14 14 13 13 13 13 13 12 11 9 7 7 6 5 5 4 4 3 3 3 3 4
5 2 2 4 2 5 9 7 5 4 7 10 9 7 7 4 3 2 1 1 3 2 3 3 2 4 2 4 6 6 7 9 10 11 14 16 18 18 16 16 16 15 14 14 14 16 18 19 19 18 17 17 17 17 17 18 17 17 16 15 15 16 15 15 15 14 14 14 14 13 13 12 11 9 8 7 7 6 5 5 4 4 3 3 3 3
4 2 2 1 2 6 10 9 6 7 10 9 6 5 4 3 3 3 2 3 3 2 4 2 1 4 3 1 3 5 6 7 8 9 14 18 18 18 16 16 16 15 15 14 14 15 17 18 19 19 18 18 18 17 18 19 18 17 17 15 15 16 16 16 16 15 15 15 14 14 13 12 11 10 9 8 7 6 6 5 5 4 4 3 3 3
4 3 4 5 4 6 7 8 6 7 7 5 3 4 3 1 2 2 2 2 1 3 3 0 2 4 3 2 2 4 6 6 6 6 11 16 18 18 17 17 15 15 15 14 14 14 14 16 18 19 18 18 18 18 19 19 18 17 17 16 15 16 17 17 17 17 15 15 15 14 13 12 11 10 9 9 7 7 6 4 4 5 4 4 4 4
5 4 5 6 5 6 4 3 4 5 5 5 3 3 3 1 0 1 1 1 1 3 3 1 3 3 2 2 2 2 3 4 5 6 7 12 16 18 18 17 16 15 16 14 14 14 13 15 18 19 19 18 18 19 20 20 20 18 17 17 16 16 17 17 17 18 17 16 15 15 14 13 12 11 10 10 8 7 6 4 4 4 4 5 5 5
2 3 7 5 3 6 6 2 1 2 4 3 1 2 3 1 2 2 2 2 3 2 2 3 3 3 1 2 2 2 2 3 4 6 7 9 13 15 17 17 17 16 16 14 14 14 14 16 19 19 19 19 18 19 20 20 20 19 17 18 18 17 18 18 18 19 18 16 16 15 15 14 12 11 11 10 9 7 6 5 4 4 4 4 5 6
1 3 5 4 2 5 7 1 0 2 3 2 1 2 1 2 2 2 3 4 4 3 1 2 3 2 3 0 3 3 3 4 4 7 9 9 11 13 15 16 16 15 15 14 14 14 15 18 19 19 19 19 18 19 20 20 21 20 18 18 18 18 18 19 19 19 18 17 16 16 16 14 13 11 11 11 9 8 7 5 5 5 5 5 5 7
2 4 6 5 3 4 3 3 3 1 1 3 3 1 2 2 3 1 1 1 3 2 1 1 2 1 2 1 3 3 3 3 4 7 10 10 11 12 13 14 15 15 15 15 14 14 15 18 19 19 20 19 19 19 21 21 21 21 19 18 19 18 18 19 20 19 19 18 17 16 16 15 14 13 12 11 10 9 8 7 6 6 5 6 7 8
1 4 6 4 5 5 1 3 4 1 2 3 2 3 4 0 2 2 1 2 2 1 2 2 3 2 2 2 4 4 3 3 4 7 10 11 12 12 12 13 15 16 16 16 16 15 16 18 19 20 20 20 20 20 21 21 21 20 19 18 19 19 18 19 20 20 19 19 17 17 17 16 14 14 13 12 11 10 9 8 8 7 7 7 9 9
2 2 6 3 4 6 5 5 5 2 2 2 2 2 3 1 0 1 2 2 2 3 2 2 2 2 3 3 3 3 3 3 4 7 10 11 12 12 12 14 16 16 15 15 15 14 14 17 20 20 20 21 22 21 20 21 21 20 20 19 19 19 18 19 20 20 19 19 18 17 17 16 15 14 14 13 11 10 10 9 9 8 8 8 10 10
1 2 3 4 4 6 6 5 3 3 2 2 1 3 2 3 2 1 2 3 3 2 3 3 2 2 4 5 3 2 2 3 5 7 8 10 12 11 11 13 14 15 14 14 15 14 14 18 20 21 21 21 22 21 20 21 21 21 20 19 19 19 19 19 20 20 19 19 18 17 17 17 16 15 15 13 12 11 11 10 9 9 9 9 10 11
1 3 1 5 5 5 5 4 3 4 4 4 4 4 2 1 1 1 1 2 3 3 2 3 3 3 6 4 3 3 2 2 5 6 6 8 10 10 11 12 13 14 14 14 14 14 15 18 20 21 21 21 21 21 20 20 21 21 21 20 20 20 20 21 20 20 19 19 18 18 17 17 17 16 15 14 13 12 11 10 9 9 8 9 10 11
2 3 0 3 5 5 4 3 3 4 4 4 3 3 3 2 2 3 2 1 2 3 3 3 4 3 5 3 3 3 1 2 4 5 5 7 10 10 10 12 13 14 14 15 15 14 15 17 20 20 20 20 20 21 21 21 21 21 21 21 20 20 21 21 21 20 19 18 18 18 18 18 17 17 16 14 13 13 12 11 10 9 9 9 11 11
1 3 2 3 3 2 4 3 1 4 4 5 4 2 2 2 3 4 2 0 1 1 1 3 3 2 5 3 1 1 1 1 2 4 5 6 8 10 10 11 12 13 13 15 15 14 15 18 20 20 20 21 20 21 22 21 21 22 22 21 21 21 22 22 21 20 19 19 18 19 18 18 18 17 16 15 14 14 13 12 11 10 10 10 11 11
1 3 3 3 3 3 4 5 3 1 4 5 4 3 4 3 3 4 4 3 3 3 2 3 3 1 3 1 1 1 2 2 2 4 6 6 7 9 10 11 11 11 12 14 13 13 14 17 19 19 20 21 21 21 22 22 21 22 22 21 22 22 23 22 21 20 20 19 19 19 19 19 18 18 17 16 16 15 14 13 12 11 11 11 11 12
2 2 3 4 4 5 5 5 4 2 4 4 3 3 5 5 3 3 3 3 4 4 4 5 3 1 2 3 3 1 2 2 2 3 5 6 7 8 9 10 11 11 11 13 13 13 14 16 17 18 19 20 21 22 22 22 21 22 22 22 22 22 23 22 21 21 20 20 20 20 20 20 19 19 18 18 17 16 15 14 13 12 12 11 12 12
2 2 4 5 4 4 3 2 1 0 2 3 2 3 6 7 6 3 3 4 5 3 3 6 5 2 2 2 1 1 1 2 2 3 4 5 6 8 9 9 10 11 12 14 14 14 14 14 15 18 19 20 21 22 22 23 22 22 23 22 22 22 23 23 22 21 21 21 21 21 21 21 20 20 19 19 18 16 16 15 14 14 13 12 13 13
3 2 3 4 4 4 4 3 4 3 2 2 2 4 5 6 7 5 4 4 4 3 4 6 5 5 6 6 3 3 2 2 3 4 5 5 6 7 8 9 10 10 11 13 13 13 14 14 15 18 20 20 21 21 22 23 23 23 23 23 23 22 23 23 22 22 21 21 21 22 22 22 22 21 20 19 18 17 16 16 15 15 14 13 13 14
4 3 2 2 4 4 4 4 2 3 5 4 3 2 3 5 7 7 7 4 3 5 5 2 3 7 8 7 6 4 3 1 2 4 5 6 6 7 7 9 10 11 11 13 14 14 15 15 15 17 20 20 21 21 22 23 24 24 23 23 24 23 23 23 23 22 22 22 22 22 23 23 22 21 20 19 19 18 17 16 16 15 14 14 14 15
4 2 2 2 3 1 2 2 1 3 5 5 6 5 4 5 7 9 9 6 5 7 7 5 4 8 9 8 6 4 3 2 0 2 3 5 7 7 8 9 10 11 12 14 15 15 16 16 15 16 19 21 21 22 22 22 24 24 23 23 24 24 24 23 22 23 23 22 22 23 22 22 21 21 20 20 19 18 17 17 16 15 15 15 15 15
3 1 2 3 4 3 3 2 1 3 5 5 7 6 5 6 8 9 10 8 6 10 11 8 8 10 8 9 8 3 1 2 0 3 4 6 7 8 9 10 11 11 13 14 15 15 15 16 16 17 19 21 21 23 23 22 23 24 24 24 24 24 24 23 23 23 23 23 23 23 22 22 21 20 20 20 20 19 18 17 16 16 16 15 15 15
2 1 1 3 5 4 4 2 1 3 5 6 7 5 4 7 8 8 8 6 6 10 10 9 10 9 4 5 7 3 0 3 4 5 5 6 7 7 8 9 10 11 12 13 14 14 14 15 15 17 19 21 22 23 23 22 23 24 24 24 24 25 25 24 24 24 24 24 23 22 22 22 21 21 21 21 20 19 18 18 17 17 16 16 16 15
3 1 2 4 5 3 4 3 2 3 6 8 7 2 2 6 8 6 5 5 6 8 8 7 7 5 1 1 4 3 2 4 5 6 5 5 6 7 8 8 8 10 11 12 13 14 15 15 16 16 19 21 22 23 23 22 23 23 24 24 24 24 24 25 24 24 24 24 23 22 22 22 22 22 21 21 21 20 19 19 18 18 17 16 16 16
3 3 3 4 5 3 3 2 2 5 7 5 2 1 2 5 7 5 4 6 7 7 6 5 4 5 4 3 5 3 1 3 3 3 4 5 6 7 7 6 7 8 9 10 11 13 14 15 16 18 20 21 21 21 22 22 23 23 24 24 24 24 24 25 25 25 25 25 23 23 23 22 22 22 22 22 21 20 20 19 19 18 17 16 16 17
2 4 2 1 4 4 2 0 4 7 6 2 1 2 4 6 7 7 7 6 6 7 7 5 5 7 6 5 6 4 1 2 3 2 3 4 5 5 6 5 4 5 7 8 10 12 13 13 16 19 20 21 21 21 21 21 22 22 22 23 24 24 24 25 25 25 25 25 24 24 23 23 23 23 22 22 21 20 20 20 19 19 17 16 16 17
3 4 2 1 4 4 1 3 7 6 3 0 3 2 3 4 5 8 9 7 6 7 8 8 8 8 8 5 4 5 3 2 3 3 3 5 5 4 5 4 3 4 6 7 9 10 11 13 16 18 19 20 20 21 21 21 21 20 20 21 22 23 23 24 24 24 24 24 25 25 24 23 23 23 22 21 21 20 20 20 20 19 18 16 16 17
4 4 3 2 4 4 4 5 6 3 2 3 5 4 2 2 3 5 5 3 4 6 7 7 6 6 8 7 4 3 3 3 4 5 5 6 5 5 4 3 3 4 5 6 7 9 11 14 16 17 18 18 19 19 20 20 20 19 19 20 21 22 23 23 23 23 24 24 24 24 24 23 23 22 22 22 21 21 21 21 21 20 18 17 16 16
6 4 3 4 4 4 6 6 5 5 3 3 3 4 3 2 4 5 3 2 5 6 6 7 7 4 5 6 5 3 2 4 5 5 6 7 7 5 3 1 1 3 4 5 6 8 11 13 15 16 16 17 18 19 18 18 18 18 18 18 19 20 21 22 22 23 23 23 23 23 23 23 23 22 23 22 22 22 22 21 21 19 17 17 16 17
5 4 3 4 4 3 6 7 6 7 4 2 3 5 4 3 4 4 4 1 7 10 9 8 9 7 5 5 5 4 3 6 5 1 4 6 6 6 4 3 3 2 4 5 6 8 10 11 13 14 15 16 18 18 17 17 17 17 17 18 19 19 20 21 22 22 22 22 23 23 23 22 22 22 22 22 22 22 22 21 19 17 17 18 18 18
2 3 3 5 5 4 6 6 6 6 1 5 7 8 7 4 2 3 5 1 7 13 12 9 10 9 7 6 4 4 5 6 2 4 3 3 5 5 4 4 5 4 4 6 6 8 10 11 12 13 14 16 17 18 18 18 18 18 18 18 19 19 20 21 21 22 22 22 21 21 21 21 21 21 21 21 22 22 21 20 18 17 17 18 18 16
2 1 3 5 6 5 6 6 5 2 4 9 12 11 9 5 1 4 4 1 10 16 13 11 11 10 9 7 3 3 5 5 5 4 2 2 1 3 3 3 4 4 5 6 7 7 9 11 13 13 14 15 16 17 18 18 18 18 18 18 18 19 20 20 20 20 21 20 20 19 19 19 20 21 21 22 21 21 20 19 17 17 16 15 15 13
4 2 1 3 5 5 5 6 5 2 4 11 13 11 9 4 3 3 4 5 12 16 13 12 12 10 9 8 3 1 2 4 5 6 5 4 1 2 2 2 3 3 4 5 7 8 9 11 12 13 14 14 15 17 18 18 18 18 17 17 18 19 19 19 18 19 19 18 18 18 19 19 19 20 21 22 20 18 17 16 15 15 14 12 12 12
5 3 1 1 4 4 4 6 5 3 5 12 12 9 10 5 1 4 7 9 12 14 13 13 12 10 10 9 5 3 4 5 5 5 5 4 3 4 4 2 2 3 3 4 5 6 7 8 10 11 12 12 14 16 17 17 17 17 16 17 18 18 18 17 16 17 17 17 17 17 17 18 18 18 18 18 17 15 15 14 13 13 12 12 11 12
5 4 2 4 5 5 3 4 5 2 6 13 10 7 8 6 4 6 9 9 11 12 13 12 11 11 11 10 8 7 6 5 6 6 6 6 5 6 5 4 3 2 2 3 4 6 6 6 8 9 9 11 13 15 16 17 17 15 16 17 18 16 15 14 15 15 15 16 17 16 17 17 16 15 15 13 13 14 13 13 12 12 13 13 13 14
3 3 3 4 4 3 3 3 3 2 5 10 8 6 7 7 5 7 8 9 11 11 10 9 10 12 13 11 10 8 5 4 6 7 7 7 7 6 7 7 6 4 2 1 2 4 5 5 6 7 8 8 10 12 13 14 15 14 15 15 13 12 12 13 13 13 14 14 15 15 15 15 14 14 14 12 13 14 14 13 13 13 13 13 14 14
4 4 2 2 2 3 3 3 3 1 1 2 4 4 4 6 8 9 9 9 10 10 9 9 10 12 14 13 11 7 5 5 6 7 8 8 8 9 9 9 9 7 4 3 2 2 3 4 4 6 6 7 7 9 10 11 12 13 12 10 9 10 11 11 11 12 12 12 13 13 13 13 13 13 13 12 12 13 13 13 13 13 12 12 12 12
5 3 2 3 3 3 2 1 3 3 2 1 3 3 1 4 7 8 9 9 9 9 9 9 10 11 13 13 11 9 7 7 6 7 8 8 8 10 10 11 11 11 8 6 5 2 2 3 3 4 5 6 6 7 8 9 10 10 9 8 7 9 10 10 10 11 11 12 13 13 13 13 14 13 12 11 11 12 12 12 12 11 11 10 11 11
4 3 4 3 4 4 2 2 6 9 6 3 2 0 2 5 5 6 7 8 9 10 9 9 10 11 12 14 13 11 10 10 8 7 7 7 9 10 10 10 12 12 12 10 7 3 3 4 4 4 4 4 4 4 5 6 7 7 7 7 7 7 8 10 11 12 12 13 13 13 12 13 12 11 10 10 10 10 10 10 10 10 10 10 10 10
2 3 4 4 4 4 2 3 7 8 7 5 4 5 6 6 5 5 6 7 8 9 9 9 10 11 11 13 14 13 13 13 13 10 7 7 8 9 9 11 12 13 14 13 11 7 5 6 6 6 5 5 4 3 3 2 2 2 3 4 5 5 7 8 10 11 12 12 12 11 11 11 11 10 8 7 8 8 8 8 8 9 9 9 8 7
2 3 3 4 4 2 2 4 6 6 6 6 6 6 6 6 5 5 6 6 7 9 9 11 13 13 13 13 14 14 15 16 16 14 12 10 9 9 10 11 13 14 15 15 15 13 12 11 11 10 10 9 7 6 6 5 4 3 1 2 4 5 6 7 8 9 9 10 10 9 8 8 9 9 8 7 7 7 6 7 7 6 5 5 6 7
3 3 4 4 3 3 4 6 7 4 2 5 6 6 6 7 6 5 5 7 8 8 8 9 11 13 14 15 15 15 14 15 17 17 14 12 12 12 11 12 14 15 15 15 15 16 16 15 14 13 12 11 10 9 9 8 7 6 4 2 1 4 6 7 7 6 7 7 7 7 7 7 8 8 7 7 7 7 6 6 7 6 5 5 5 7
4 4 5 4 4 5 6 7 6 4 1 3 4 5 6 6 6 6 7 8 8 9 8 8 9 10 11 13 16 16 13 14 17 18 16 14 16 17 15 14 14 14 14 15 15 17 17 17 17 16 15 14 13 12 12 12 11 9 8 6 3 2 4 6 7 7 6 6 6 6 5 5 5 5 5 5 5 5 4 5 5 5 5 5 5 5
Wind_Direction
165 181 206 202 176 184 199 202 201 135 144 152 167 179 175 174 155 144 142 157 182 201 191 194 196 169 171 170 173 174 179 195 193 184 190 188 185 186 183 179 174 172 166 165 167 165 164 161 158 159 157 157 158 159 160 160 159 156 153 151 147 144 144 146 150 150 147 142 138 135 132 127 122 115 109 101 90 83 76 68 61 55 52 50 47 45
175 220 216 216 191 181 193 202 215 205 162 158 155 152 167 163 125 134 148 156 184 215 176 182 213 183 170 166 168 175 182 192 193 189 193 190 187 186 185 183 177 171 165 166 168 166 167 164 161 161 161 162 164 165 167 166 163 160 158 154 150 149 149 150 153 152 150 146 142 140 136 132 126 118 112 106 96 88 82 73 64 57 52 51 48 46
179 239 234 229 208 184 183 191 207 208 190 193 163 159 152 130 119 128 157 162 179 225 174 180 225 185 163 168 166 177 190 193 192 192 193 190 190 189 188 186 178 172 170 170 170 169 170 168 165 166 167 170 170 170 173 171 166 164 164 158 153 154 154 153 155 155 154 149 145 143 138 135 129 117 108 105 101 96 88 77 67 58 53 52 50 49
196 225 225 219 201 184 185 190 207 214 213 209 167 193 126 135 161 142 166 177 180 227 231 191 225 180 160 172 172 182 193 192 192 193 194 195 195 192 190 188 181 177 174 174 174 173 173 171 170 170 172 175 175 176 177 174 170 169 169 164 160 161 158 156 159 158 156 153 148 144 141 139 132 123 118 115 109 102 93 82 71 62 57 57 55 54
205 190 199 202 189 201 199 186 199 212 231 210 163 240 104 141 187 121 155 175 181 212 228 229 232 188 174 185 181 182 190 194 193 193 197 200 200 196 193 192 190 185 180 178 178 177 176 175 176 176 176 178 180 182 181 178 175 173 172 170 167 167 164 161 164 162 158 157 154 150 147 146 141 139 139 130 120 112 102 88 74 66 62 60 60 58
211 143 167 195 189 205 208 184 182 187 239 201 160 205 96 139 142 120 152 171 191 202 195 232 253 177 173 193 187 175 185 195 193 193 197 198 199 199 196 195 195 191 186 185 183 180 178 178 178 180 180 182 185 185 184 182 179 177 175 173 170 170 170 168 169 168 165 165 163 159 157 156 155 152 145 134 126 118 105 94 83 76 69 65 66 63
195 135 207 218 193 199 216 201 173 179 212 181 147 184 144 137 136 143 166 192 234 135 148 220 267 241 175 192 185 176 184 191 192 195 197 196 197 198 197 196 196 194 190 190 187 182 180 180 180 183 184 186 187 186 186 184 183 183 180 178 176 175 175 174 174 175 174 172 171 169 164 161 160 154 146 137 130 121 111 108 99 88 78 72 70 67
167 177 205 215 204 207 212 183 158 187 220 110 128 176 154 143 148 158 184 220 318 65 164 203 254 284 217 172 171 178 185 189 192 198 197 197 198 197 197 196 194 196 193 191 189 185 184 183 183 185 186 187 189 186 186 186 185 186 186 184 183 180 179 179 178 180 181 179 177 176 171 168 167 157 151 151 144 139 133 126 118 104 91 80 72 72
108 89 25 254 216 205 167 74 138 185 200 105 140 155 142 141 145 163 204 206 358 259 195 166 220 266 206 132 158 178 190 197 198 199 199 198 199 198 198 196 195 195 194 192 190 187 188 187 187 187 186 187 189 187 187 187 185 187 188 187 186 183 183 184 183 184 186 184 181 181 177 173 169 160 157 158 155 155 152 147 142 127 110 91 82 81
24 22 351 303 255 151 97 85 135 168 105 127 143 129 130 136 139 183 237 159 227 261 86 111 207 272 259 134 162 181 198 209 204 202 201 199 198 197 197 196 195 194 192 193 191 189 190 189 189 189 187 186 188 188 188 188 187 187 187 187 187 186 187 188 187 188 188 187 185 184 181 176 172 168 168 165 163 168 166 163 162 151 137 113 100 91
285 324 307 294 329 90 103 101 106 108 114 137 146 136 139 138 149 201 248 246 238 204 79 85 221 280 281 143 153 178 204 213 206 201 199 199 199 197 197 195 194 193 192 192 191 189 189 190 190 190 189 187 188 188 189 190 190 187 188 189 188 188 190 190 190 191 190 190 189 187 185 182 179 178 178 177 175 180 180 177 176 171 163 149 134 111
233 186 146 115 105 119 117 105 96 120 137 154 162 155 159 150 173 200 170 215 254 105 89 80 220 258 263 113 126 164 183 198 203 199 194 197 199 196 196 196 193 193 193 192 191 189 187 188 189 190 190 188 187 188 189 192 193 190 190 191 188 189 192 191 192 193 192 192 193 192 190 189 187 188 187 187 187 186 186 184 183 181 177 171 164 146
152 111 110 121 166 172 136 115 119 142 163 191 186 188 214 178 170 215 166 193 312 74 82 91 220 239 257 286 255 193 184 191 198 200 194 195 197 195 194 195 193 193 193 192 191 189 186 186 188 189 190 189 189 189 190 192 194 193 194 193 190 190 191 191 192 194 194 195 197 196 195 194 192 195 197 193 191 191 189 191 193 194 191 187 183 175
134 106 149 159 180 206 198 150 156 163 184 203 194 220 257 343 47 284 112 93 37 80 88 137 215 239 224 214 227 177 170 179 189 199 196 194 195 194 193 192 192 193 193 192 191 190 187 184 187 189 189 191 192 190 190 193 195 196 196 195 193 191 190 190 191 194 196 196 198 197 197 197 196 198 200 196 193 191 193 199 206 209 206 200 195 184
146 134 168 169 149 180 196 269 301 136 151 176 241 280 280 335 329 317 8 25 14 53 109 147 222 296 349 164 159 131 150 179 206 205 193 192 193 192 192 192 190 191 193 192 191 192 187 184 187 189 190 192 193 189 189 192 194 197 198 195 194 192 189 190 192 194 196 197 198 198 198 200 200 201 202 201 202 201 203 211 217 222 219 208 198 186
224 105 135 135 88 178 187 203 5 130 131 146 230 255 283 353 331 339 1 354 339 326 105 168 245 333 23 141 184 192 212 216 220 205 190 187 187 188 191 192 190 190 192 192 191 191 187 185 187 189 190 193 192 189 189 191 192 196 198 195 195 195 192 192 193 194 196 198 197 198 199 202 204 206 205 206 210 214 220 230 233 232 226 211 195 185
202 104 119 151 164 187 198 153 162 216 154 175 203 181 72 7 306 308 352 271 271 296 49 7 280 106 72 66 139 167 199 180 181 188 185 182 179 182 189 191 190 189 190 191 191 190 187 184 186 188 190 192 191 190 190 192 192 193 195 194 195 197 195 193 194 194 196 198 197 198 200 203 207 211 211 211 214 220 228 236 239 239 229 212 196 188
264 109 117 168 169 148 164 157 152 340 312 201 174 111 121 91 293 278 275 232 248 336 61 24 351 34 55 75 125 153 162 143 159 171 171 174 175 179 187 190 190 189 189 190 190 190 186 184 185 189 191 192 192 193 192 191 191 191 192 194 195 196 196 193 193 194 195 197 198 199 202 206 210 213 214 214 217 222 227 232 238 239 230 212 199 197
288 132 116 148 156 139 172 193 160 142 275 296 19 126 193 270 184 189 290 315 330 2 52 34 356 15 21 39 99 131 127 132 155 163 168 174 177 181 185 186 188 189 188 190 191 188 185 185 186 188 191 193 193 194 193 190 190 190 191 195 196 196 195 193 191 193 195 198 200 201 204 207 210 211 212 214 217 220 226 233 237 236 227 212 202 206
283 266 116 125 139 146 180 210 179 149 199 271 215 184 234 321 347 358 335 321 315 342 24 6 349 75 52 24 28 68 94 138 158 171 180 180 180 184 184 183 186 187 187 189 189 187 184 185 186 187 191 193 193 194 192 189 190 190 190 193 195 194 194 193 192 193 195 199 201 203 205 206 208 209 211 213 216 220 228 235 235 231 223 214 207 212
234 275 107 121 143 168 195 219 199 175 185 209 208 198 194 206 280 284 263 303 319 327 11 2 343 54 61 29 8 42 73 163 171 181 189 185 185 186 182 182 183 183 186 187 188 187 183 182 185 187 190 193 192 192 192 190 190 191 190 192 193 193 194 195 195 196 197 200 202 203 204 204 205 208 210 213 217 223 231 235 233 227 219 215 214 216
237 275 190 139 167 183 183 202 239 228 224 238 232 219 206 202 248 255 212 178 291 309 348 340 320 26 65 45 6 24 27 209 192 193 193 187 187 185 180 180 181 181 183 185 186 186 182 180 184 185 188 192 191 190 191 190 191 192 191 191 191 192 195 197 198 199 199 200 203 203 203 203 203 206 210 214 218 224 230 231 230 227 220 215 217 220
339 294 261 205 186 131 114 132 266 286 273 271 269 271 262 229 255 276 298 63 239 264 324 291 287 46 73 62 7 12 341 283 227 210 204 190 185 186 179 176 180 181 182 185 185 185 182 179 181 183 186 188 188 189 190 190 191 193 192 191 191 193 196 198 199 201 200 201 202 202 202 201 203 206 210 216 221 225 228 229 229 229 224 217 218 221
228 263 256 233 184 117 116 138 146 224 244 248 240 243 261 251 263 292 318 337 292 271 268 262 270 51 81 128 197 248 255 248 228 215 208 192 181 185 182 175 178 180 181 183 182 180 179 176 178 182 183 184 187 187 189 190 191 193 193 193 193 194 195 197 199 201 201 201 201 201 202 203 204 208 213 218 222 225 228 230 230 228 226 220 216 219
207 243 249 250 210 179 180 171 156 186 225 242 229 213 244 257 262 275 290 289 270 274 294 291 287 60 127 192 196 217 255 229 193 201 202 189 179 183 184 177 175 177 177 179 177 175 176 175 176 180 182 184 186 186 187 190 191 192 193 194 194 193 194 197 199 201 201 201 201 201 204 206 208 212 216 219 223 226 227 229 230 229 227 223 219 218
247 247 238 260 251 217 210 179 109 232 207 225 239 219 234 242 232 233 265 266 259 264 277 273 281 3 15 276 218 92 300 249 162 168 183 184 183 183 183 180 174 176 178 178 177 175 175 176 179 181 182 185 186 186 187 189 191 193 194 194 195 194 194 196 198 201 202 202 202 203 206 209 212 215 218 220 224 227 228 230 231 230 228 227 223 220
246 239 249 280 285 293 333 41 38 348 292 248 237 216 227 232 225 230 247 264 293 302 270 264 281 312 318 304 321 28 327 245 157 165 175 171 178 181 181 180 177 178 179 178 178 177 178 180 182 182 183 185 186 187 188 189 192 194 194 194 196 195 195 196 198 201 202 202 204 205 208 211 214 217 220 223 225 227 229 231 232 232 233 231 223 221
249 232 208 246 258 287 339 39 45 316 291 289 291 247 223 218 221 233 246 271 320 294 278 323 324 297 302 305 317 357 349 282 166 176 176 161 170 178 176 179 180 180 180 181 181 182 182 183 184 183 183 185 187 187 188 191 192 194 195 195 195 195 195 196 197 200 202 203 205 208 210 213 216 220 223 225 226 228 230 232 233 234 234 232 225 224
264 243 140 219 234 217 28 50 38 290 280 281 285 273 245 222 219 233 247 255 262 268 286 347 330 290 295 302 308 352 357 306 91 139 158 152 160 170 173 181 185 184 185 186 186 186 186 186 185 185 184 185 186 187 190 193 192 193 195 195 194 196 197 197 198 200 202 204 207 210 212 214 217 221 223 225 227 229 231 233 234 233 232 231 228 227
271 254 111 249 228 148 108 105 159 264 269 268 270 266 255 242 231 239 257 263 260 271 285 301 294 288 297 306 311 343 2 284 150 139 167 162 162 172 178 185 189 190 191 192 191 189 189 189 186 185 184 185 187 189 191 193 192 192 194 194 194 196 197 198 200 202 204 206 209 211 213 215 218 221 223 225 228 230 232 232 232 232 232 231 230 230
268 241 106 247 229 156 128 141 174 259 271 274 275 276 282 274 256 247 259 264 258 268 277 279 282 285 291 298 300 311 244 233 202 183 183 172 169 178 185 190 193 194 197 196 193 192 191 190 188 185 186 188 189 191 192 193 193 193 194 194 195 196 197 198 201 204 206 209 210 211 213 216 219 221 224 226 229 231 232 232 232 231 231 232 232 230
279 236 172 237 240 177 161 189 203 251 264 273 283 316 330 285 273 262 254 246 248 265 272 265 273 291 11 252 273 264 230 237 211 185 186 185 180 184 190 197 198 198 202 200 194 192 191 190 189 188 189 192 192 192 193 193 194 194 195 195 196 197 198 199 202 205 207 210 212 212 214 216 219 222 225 227 230 232 232 233 233 231 230 231 230 231
304 267 225 243 259 227 184 193 278 268 264 268 283 359 308 265 266 274 260 243 242 254 266 264 285 325 351 317 294 298 297 277 251 193 194 197 189 189 195 202 203 200 203 203 197 193 191 191 190 189 191 193 193 196 197 195 195 196 196 195 196 197 197 199 203 206 209 211 213 213 215 218 220 224 226 228 230 232 233 234 233 231 232 231 230 232
302 283 270 276 266 243 184 232 276 269 272 288 63 348 305 285 284 284 273 262 243 236 254 275 288 299 303 301 302 308 314 271 266 228 207 203 199 200 200 206 214 202 199 204 202 196 191 189 190 191 193 194 192 196 203 202 199 199 198 196 197 197 198 200 203 206 210 212 214 216 218 219 222 225 227 229 231 233 234 234 234 234 234 233 229 229
268 274 273 267 263 263 283 268 261 268 299 63 97 50 319 291 293 284 279 289 278 248 254 271 284 296 301 301 303 302 292 267 267 256 222 203 199 198 192 193 207 202 196 201 204 200 190 187 189 190 192 193 192 194 201 203 200 198 198 198 199 199 199 202 204 207 211 213 215 217 218 220 223 226 228 231 232 233 235 235 236 236 235 233 230 227
250 260 262 259 261 266 268 256 260 308 19 134 124 74 8 270 295 294 286 319 325 288 275 280 294 316 318 314 318 317 304 287 270 247 214 196 189 191 193 191 200 203 197 197 201 200 192 189 190 190 188 189 191 193 198 200 197 195 197 198 200 200 201 204 207 210 212 214 216 218 219 221 224 226 229 231 232 234 236 236 237 237 235 234 232 228
234 243 241 244 242 251 266 264 271 296 292 155 119 43 13 322 330 326 310 72 41 3 337 316 312 326 328 321 331 345 302 273 266 230 185 175 176 179 174 125 153 186 182 182 191 194 194 192 191 189 186 185 188 192 194 195 193 193 196 199 201 203 204 206 209 212 214 216 218 219 221 222 224 226 229 231 233 235 237 238 239 237 232 232 231 229
233 241 241 246 231 236 265 267 270 276 270 96 47 26 14 326 319 312 272 162 51 23 5 340 324 325 332 330 346 358 299 271 275 182 149 162 163 159 149 122 117 136 153 162 172 180 186 190 190 188 185 185 188 189 189 189 188 190 195 199 201 203 205 208 211 213 214 217 219 221 222 223 225 228 229 231 234 236 237 238 238 234 232 233 234 235
199 230 236 248 239 236 253 258 267 273 299 46 10 359 359 339 297 262 249 181 33 8 357 347 333 330 330 331 355 354 307 290 351 69 111 170 160 151 149 135 127 128 137 149 162 170 174 180 184 184 185 188 189 188 187 187 187 191 196 199 200 203 206 209 211 212 215 219 220 221 223 224 226 228 230 232 234 235 237 239 237 234 234 236 237 240
100 210 228 244 247 243 246 254 263 263 47 18 353 347 356 1 258 250 248 348 358 347 346 342 332 329 326 321 335 345 322 331 6 21 358 317 158 144 133 121 128 138 143 149 157 163 165 170 176 180 186 191 191 187 187 187 188 193 198 199 201 204 207 208 210 212 216 218 220 221 220 221 222 224 228 232 234 236 237 237 236 234 233 234 238 241
34 7 254 255 262 247 240 258 258 146 43 355 343 346 346 324 245 275 309 332 328 328 334 335 328 330 328 320 315 353 349 351 342 331 335 342 356 102 89 86 113 130 137 142 152 162 167 170 177 182 186 188 187 185 186 187 190 196 198 200 204 207 208 208 209 212 215 216 218 218 217 218 219 220 226 231 234 236 235 233 236 237 232 231 236 236
4 344 358 356 313 280 248 266 256 158 35 346 340 355 352 330 277 340 334 323 321 325 332 331 330 337 335 323 314 317 330 348 351 352 6 15 30 54 61 75 113 123 118 121 147 172 177 171 178 185 184 181 182 183 185 188 193 197 198 202 209 210 208 208 208 210 214 215 216 217 217 219 220 221 226 231 231 231 233 236 240 235 226 228 232 232
1 328 358 32 349 303 274 284 269 217 12 352 347 14 19 17 27 355 336 334 342 342 336 331 336 346 341 329 326 327 330 353 18 31 35 34 41 50 56 61 69 99 128 141 167 185 186 175 178 185 182 178 181 184 186 190 194 197 200 206 211 210 206 206 207 208 211 214 217 220 221 221 221 221 225 227 226 230 235 236 234 224 221 230 234 234
21 345 347 26 14 322 308 349 351 322 351 358 10 43 40 32 23 359 351 356 359 354 344 337 340 346 343 332 326 327 341 20 38 43 39 37 40 42 51 54 47 51 88 126 174 185 189 185 180 180 178 177 180 184 188 192 195 200 205 210 212 209 204 203 203 207 212 214 216 220 222 223 224 224 226 227 228 234 236 233 229 226 226 231 232 231
39 32 354 348 14 354 329 347 8 329 266 23 57 62 28 13 11 4 2 5 2 360 356 348 343 345 344 336 330 335 2 28 42 47 42 41 41 35 38 42 36 37 54 63 70 146 188 191 174 170 170 167 174 185 191 195 201 206 209 208 204 203 203 203 203 207 211 214 220 226 229 232 231 226 225 225 225 230 235 232 229 229 227 227 229 233
53 39 332 309 337 352 331 314 349 341 285 208 137 129 26 356 359 354 355 4 6 1 359 359 359 358 354 350 350 357 5 11 36 54 46 40 44 40 37 36 31 28 31 33 37 70 157 172 164 166 163 155 164 180 191 200 209 212 210 203 199 202 206 210 213 215 217 222 229 236 239 240 239 234 229 228 228 233 239 236 231 231 231 229 231 234
54 337 314 334 345 337 317 320 348 357 359 331 296 338 4 360 355 345 347 358 1 1 6 11 14 16 15 9 4 5 5 5 17 42 50 46 47 42 37 37 33 28 27 24 22 47 129 144 146 157 153 142 147 166 181 196 207 211 207 202 201 203 207 214 219 220 221 222 226 229 230 231 234 233 229 228 229 231 232 228 225 226 226 225 226 228
28 317 319 350 351 341 342 343 354 19 44 33 353 345 349 348 348 351 355 350 347 359 18 28 30 33 32 24 15 13 16 16 13 15 27 43 50 47 42 40 36 33 31 28 26 41 78 96 98 104 103 91 90 104 120 143 172 191 201 203 204 206 209 214 218 219 217 215 213 212 214 216 217 217 217 216 216 217 215 212 214 217 218 217 219 220
310 294 325 329 319 326 20 2 1 36 72 59 29 9 355 350 351 359 8 2 354 2 21 37 43 44 42 38 32 24 21 21 16 13 15 23 34 46 52 52 47 43 41 39 38 44 56 65 70 74 74 70 68 72 75 68 55 39 334 249 232 224 217 212 211 211 206 201 197 196 196 195 196 199 198 192 192 196 197 195 200 206 209 213 218 216
315 320 336 322 316 349 10 1 353 357 50 45 29 11 359 2 8 15 26 30 23 16 15 28 42 43 40 41 41 36 31 27 21 20 23 23 21 27 42 57 60 55 50 50 50 50 50 54 57 59 61 60 61 64 65 60 54 47 34 7 258 224 214 205 197 192 185 177 168 166 170 171 173 177 179 176 174 175 177 184 191 193 187 194 217 223
354 349 340 328 324 337 350 354 345 332 17 47 39 23 15 17 24 30 37 41 40 35 29 30 42 44 38 35 34 32 33 32 26 23 23 23 21 20 25 39 53 58 57 55 55 54 52 51 51 52 52 51 52 55 57 55 51 48 45 45 59 129 172 171 161 149 140 129 114 109 122 135 141 149 155 154 153 154 156 165 176 184 194 213 235 243